sat.trackr.live / text

‹ back to catalog

METOP-C

NORAD 43689 · 2018-087A

PAYLOAD ACTIVE UNKNOWN

§ Identity

Operator
Country
EUME
Launch date
2018-11-07
Launch site
FRGUI
Launch vehicle
Mass (kg)
RCS (m²)

Purposes: earth_obs

External: N2YO · Heavens-Above · Gunter

§ Orbital elements

Epoch: 2026-09-20T03:52:42.030048Z

Period
101.30 min
Inclination
98.7333°
Eccentricity
0.0000648
Mean motion
14.21473530 rev/d
Perigee alt
819.9 km
Apogee alt
820.8 km
Semi-major
7,198.5 km
B*
3.6226e-5
RAAN
321.0624°
Arg perigee
55.8960°
Mean anomaly
304.2279°
Rev number
40,832

§ Raw data

METOP-C1 43689U 18087A   26263.16159757  .00000035  00000+0  36226-4 0  99942 43689  98.7333 321.0624 0000648  55.8960 304.2279 14.21473530408328

JSON: /api/v1/satellites/43689 · /tle

For live sub-satellite position, see the globe view (requires WebGL).

§ Visibility from observer

Set your observer location to see the next 7 days of passes ≥ 10°. The values pass through the URL so the page stays shareable.

No JS? Fill the form by hand. The geolocation button needs JavaScript.

§ Radio — SatNOGS DB

ModeDescriptionDownlinkUplink
AHRPT AHRPT Prime 1.701 GHz
BPSK PMT-A3 ARGOS-3 A-DCS 465.988 MHz
FM Mode X (active over Norway) 7.800 GHz
PSK Telemetry 2.230 GHz

4 transmitters · refreshed weekly from db.satnogs.org